Location: Bern�tre
(50.1974°N, 2.0915°E)
Time: 06:28:13
(UTC+00:00)

Cosmos 2279 Rocket - Pass Details

Date: 18 September 2020
Orbit: 964 x 979 km, 82.9° (Epoch: 27 October)

Event Time Altitude Azimuth Distance (km) Brightness Sun altitude
Exits shadow 20:20:49 42° 98° (E) 1,377 4.3 -22.5°
Maximum altitude 20:21:12 42° 89° (E) 1,368 4.4 -22.5°
Drops below altitude 10° 20:27:02 10° 21° (NNE) 2,743 6.5 -23.3°
Sets 20:29:40 0° 15° (NNE) 3,696 7.3 -23.6°
